This demonstration page uses our WeatherBlox Daily Observations layout. Learn more.

Left ArrowRight Arrow

Hourly Observations for October 12, 2020

Temp ( °F °C ) Dew Point ( °F °C ) Humidity (%) Winds ( mph kmh ) Pressure ( in mb ) Visibility ( mi km ) Precip ( " mm )
12:53 am 00:53 Clear 76 24.4 35 1.7 23 23 W 10 17 29.78 1008 10 16 0.00 0.00
1:53 am 01:53 Clear 67 19.4 34 1.1 30 30 NW 7 11 29.80 1009 10 16 0.00 0.00
2:53 am 02:53 Clear 65 18.3 34 1.1 32 32 NW 8 13 29.81 1010 10 16 0.00 0.00
3:53 am 03:53 Clear 60 15.6 33 0.6 36 36 N 7 11 29.83 1010 10 16 0.00 0.00
4:53 am 04:53 Clear 65 18.3 34 1.1 32 32 N 14 22 29.87 1011 10 16 0.00 0.00
5:23 am 05:23 Mostly Cloudy with Haze 65 18.3 29 -1.7 26 26 NE 21 33 29.95 1014 5 8 0.00 0.00
5:53 am 05:53 Cloudy with Haze 64 17.8 29 -1.7 27 27 NNE 20 31 29.93 1014 5 8 0.00 0.00
6:53 am 06:53 Cloudy with Haze 63 17.2 30 -1.1 29 29 NNE 15 24 29.98 1015 6 10 0.00 0.00
7:39 am 07:39 Mostly Clear 63 17.2 27 -2.8 26 26 NNE 17 28 30.06 1018 8 13 0.00 0.00
7:53 am 07:53 Mostly Clear 63 17.2 27 -2.8 26 26 NE 15 24 30.02 1017 8 13 0.00 0.00
8:53 am 08:53 Sunny 63 17.2 28 -2.2 27 27 N 9 15 30.08 1019 9 14 0.00 0.00
9:53 am 09:53 Sunny 67 19.4 26 -3.3 21 21 NNE 12 19 30.14 1021 10 16 0.00 0.00
10:53 am 10:53 Sunny 70 21.1 25 -3.9 18 18 NE 12 19 30.14 1021 10 16 0.00 0.00
11:53 am 11:53 undefined 72 22.2 24 -4.4 17 17 undefined N/A 30.12 1020 N/A 0.00 0.00
12:53 pm 12:53 Sunny 75 23.9 24 -4.4 15 15 ENE 3 6 30.10 1019 10 16 0.00 0.00
1:53 pm 13:53 Sunny 77 25 24 -4.4 14 14 VRB 3 6 30.08 1019 10 16 0.00 0.00
2:53 pm 14:53 Sunny 80 26.7 24 -4.4 13 13 E 8 13 30.03 1017 10 16 0.00 0.00
3:53 pm 15:53 Sunny 80 26.7 24 -4.4 13 13 E 6 9 30.01 1016 10 16 0.00 0.00
4:53 pm 16:53 Sunny 81 27.2 24 -4.4 12 12 ESE 8 13 29.99 1016 10 16 0.00 0.00
5:53 pm 17:53 Sunny 80 26.7 24 -4.4 13 13 ESE 8 13 29.98 1015 10 16 0.00 0.00
6:53 pm 18:53 Sunny 79 26.1 24 -4.4 13 13 SE 7 11 29.98 1015 10 16 0.00 0.00
7:53 pm 19:53 Clear 72 22.2 23 -5 16 16 SE 7 11 30.00 1016 10 16 0.00 0.00
8:53 pm 20:53 Clear 68 20 24 -4.4 19 19 SSE 8 13 30.02 1017 10 16 0.00 0.00
9:53 pm 21:53 Clear 67 19.4 24 -4.4 20 20 ESE 3 6 30.04 1017 10 16 0.00 0.00
10:53 pm 22:53 Clear 63 17.2 24 -4.4 23 23 Calm 30.05 1018 10 16 0.00 0.00
11:53 pm 23:53 Clear 61 16.1 25 -3.9 25 25 ESE 3 6 30.05 1018 10 16 0.00 0.00

Powered by AerisWeather